Hourly Data Report for September 18, 2020

OTTAWA INTL A
ONTARIO
Current Station Operator: NAVCAN

45°19'00.000" N
75°40'00.000" W
114.90 m
6106001
71628
YOW

Download Data

Hourly Data (September 2020)
Hourly Data Report for September 18, 2020
TIME Temp Definition
°C
Dew Point Definition
°C
Rel Hum Definition
%
Wind Dir Definition
10's deg

Wind Spd Definition
km/h
Visibility Definition
km
Stn Press Definition
kPa
Hmdx Definition


Wind Chill Definition


Weather Definition


00:00 4.4 1.3 81 1 8 24.1 100.68     LegendNANA
01:00 4.0 1.4 83 36 9 24.1 100.71     Clear
02:00 4.6 1.2 78 34 9 24.1 100.71     LegendNANA
03:00 3.9 1.1 82 33 5 24.1 100.72     LegendNANA
04:00 3.7 1.5 85 33 8 24.1 100.76     Mainly Clear
05:00 2.9 1.6 91 33 5 24.1 100.79     LegendNANA
06:00 4.7 2.2 84 34 15 24.1 100.83     LegendNANA
07:00 5.8 2.6 80 34 14 24.1 100.88     Mostly Cloudy
08:00 7.3 3.2 75 35 13 24.1 100.91     LegendNANA
09:00 10.3 2.7 59 36 12 24.1 100.97     LegendNANA
10:00 11.8 3.0 55 36 16 24.1 100.99     Clear
11:00 13.3 0.0 40 36 21 24.1 100.97     LegendNANA
12:00 12.5 -1.0 39 33 27 24.1 100.97     LegendNANA
13:00 11.6 -2.2 38 34 21 24.1 100.95     Mostly Cloudy
14:00 11.9 -2.4 37 35 23 24.1 100.95     LegendNANA
15:00 11.7 -2.4 37 35 26 24.1 100.96     LegendNANA
16:00 12.3 -2.6 35 33 24 24.1 100.97     Mainly Clear
17:00 11.3 -3.9 34 36 24 24.1 101.02     LegendNANA
18:00 9.6 -2.5 42 32 20 24.1 101.04     LegendNANA
19:00 8.4 -2.7 45 34 14 24.1 101.11     Mainly Clear
20:00 7.4 -2.0 51 35 11 24.1 101.17     LegendNANA
21:00 7.1 -1.2 56 34 14 24.1 101.20     LegendNANA
22:00 6.0 -1.1 60 33 13 24.1 101.24     Clear
23:00 5.8 -0.7 63 33 16 24.1 101.30     LegendNANA

Notes on Data Quality.

Legend

  • E = Estimated
  • M = Missing
  • NA = Not Available*
  • [empty] = Indicates an unobserved value
Date modified: